Flag for France Weather past 2 weeks in Reims, France

Now
52 °F

Low clouds.


Feels Like: 45 °F
Forecast: 45 / 53 °F
Wind: 23 mph from Southwest

Location: Chalons-Vatry

Current Time: Mar 29, 2015 at 9:37:41 PM

Latest Report: Mar 29, 2015 at 9:00 PM


Visibility: N/A

Pressure: 29.68 "Hg

Humidity: 94%

Dew point: 50 °F

Location of ReimsLocation

Historic Weather in Reims — Graph

°F

Reims temperature yesterday

Maximum temperature yesterday: 55 °F (at 5:30 PM)
Minimum temperature yesterday: 36 °F (at 2:00 AM)
Average temperature yesterday: 46 °F

Past Weeks' High & Low Weather Summary

 TemperatureHumidityPressure
High63 °F (Mar 17, 3:30 PM)100% (Mar 16, 2:30 AM)30.33 "Hg (Mar 16, 2:30 AM)
Low28 °F (Mar 23, 6:00 AM)42% (Mar 17, 3:00 PM)29.68 "Hg (Mar 24, 5:00 PM)
Average44 °F82%30.07 "Hg
* Reported Mar 14 7:00 PM — Mar 29 8:30 PM, Reims, Weather by CustomWeather, © 2015

Note: Actual official high and low records may vary slightly from our data, if they occured in-between our weather recording intervals... More about our weather records

Advertising

Reims weather history for previous 24 hours

 ConditionsComfort  
Time TempWeatherWind HumidityBarometerVisibility
8:30 PM
Sun, Mar 29
52 °FLow clouds.24 mph94%29.68 "HgN/A
8:00 PM52 °FLow clouds.22 mph94%29.71 "Hg5 mi
7:30 PM52 °FLow clouds.28 mph94%29.68 "Hg4 mi
7:00 PM52 °FLight rain. Fog.28 mph94%29.68 "Hg2 mi
6:30 PM52 °FLight rain. Overcast.29 mph94%29.68 "Hg4 mi
6:00 PM52 °FMostly cloudy.30 mph94%29.68 "Hg4 mi
5:30 PM54 °FMostly cloudy.30 mph82%29.71 "HgN/A
5:00 PM54 °FMostly cloudy.32 mph88%29.71 "HgN/A
4:30 PM54 °FMostly cloudy.33 mph88%29.71 "HgN/A
4:00 PM54 °FMostly cloudy.33 mph88%29.71 "HgN/A
3:30 PM54 °FOvercast.32 mph88%29.74 "HgN/A
3:00 PM52 °FOvercast.31 mph94%29.74 "HgN/A
2:30 PM52 °FLow clouds.26 mph94%29.77 "HgN/A
2:00 PM52 °FLow clouds.28 mph94%29.80 "HgN/A
1:30 PM50 °FLow clouds.26 mph100%29.80 "HgN/A
1:00 PM50 °FLight rain. Low clouds.28 mph100%29.83 "HgN/A
12:30 PM50 °FLight rain. Mostly cloudy.23 mph100%29.83 "Hg4 mi
12:00 PM50 °FLight rain. Low clouds.26 mph94%29.86 "HgN/A
11:30 AM50 °FLight rain. Low clouds.25 mph94%29.86 "HgN/A
11:00 AM50 °FLight rain. Low clouds.22 mph94%29.86 "Hg5 mi
10:30 AM48 °FLight rain. Low clouds.22 mph100%29.86 "Hg4 mi
10:00 AM48 °FLight rain. Low clouds.21 mph100%29.89 "Hg6 mi
9:30 AM48 °FLight rain. Low clouds.21 mph100%29.89 "HgN/A
9:00 AM48 °FLight rain. Mostly cloudy.21 mph100%29.89 "HgN/A
8:30 AM48 °FLight rain. Low clouds.21 mph100%29.92 "HgN/A
8:00 AM48 °FLight rain. Passing clouds.20 mph100%29.92 "Hg5 mi
7:30 AM48 °FLight rain. Mostly cloudy.21 mph100%29.92 "HgN/A
7:00 AM50 °FPassing clouds.20 mph94%29.92 "HgN/A
6:30 AM50 °FMostly cloudy.20 mph94%29.92 "HgN/A
6:00 AM50 °FMostly cloudy.18 mph94%29.92 "HgN/A
5:30 AM50 °FMostly cloudy.17 mph94%29.95 "HgN/A
5:00 AM50 °FMostly cloudy.17 mph94%29.95 "HgN/A
4:30 AM50 °FOvercast.17 mph94%29.95 "HgN/A
4:00 AM50 °FPassing clouds.15 mph94%29.95 "HgN/A
3:30 AM50 °FMostly cloudy.20 mph100%29.95 "HgN/A
3:00 AM50 °FMostly cloudy.18 mph100%29.98 "HgN/A
1:30 AM50 °FLow clouds.20 mph100%29.98 "HgN/A
1:00 AM50 °FLow clouds.21 mph100%29.98 "HgN/A
12:30 AM50 °FLow clouds.21 mph100%29.98 "Hg6 mi
12:00 AM50 °FMostly cloudy.20 mph100%30.01 "Hg5 mi
11:30 PM
Sat, Mar 28
52 °FMostly cloudy.23 mph88%30.01 "HgN/A
11:00 PM52 °FMostly cloudy.20 mph88%30.01 "HgN/A
10:30 PM54 °FOvercast.21 mph82%29.98 "HgN/A
10:00 PM54 °FOvercast.20 mph82%30.01 "HgN/A
9:30 PM54 °FMostly cloudy.18 mph82%30.01 "HgN/A
9:00 PM54 °FClear.21 mph82%30.01 "HgN/A
Weather by CustomWeather, © 2015

See weather overviewHow to use our weather pages